Погода в Мурыгине

Россия / Смоленская область     54°29′21″N   32°18′48″E
темп.,
°C
ветер,
м/с
пор.,
м/с
влажн.,
%
обл.,
%
осадки,
мм/ч
давл.,
гПа
погр.,
м
13 мая, чт
чт1300:00+9ююв51196100 3.6 1013650
03:00+8юв5128992 3.8 1014789
06:00+8вюв6129384 0.0 1013468
09:00+11вюв610809 0.1 1013730
12:00+11юв81083100 1.1 10121078
15:00+12юв6774100 2.1 10111023
18:00+12ююв57755 0.9 1011980
21:00+9ююв3891100 1.3 1012178
14 мая, пт
пт1400:00+7юв3793100 0.0 1012123
03:00+9юв51290100 0.0 1012350
06:00+9юв51391100 0.1 1012375
09:00+11юв51386100 0.1 1012444
12:00+12юв4982100 0.1 1012419
15:00+19юв795826 0.1 10091553
18:00+18юв487296 0.9 1007648
21:00+14вюв4890100 3.9 1006144
15 мая, сб
сб1500:00+12ююв2296100 2.4 100641
03:00+11юв349611 2.5 100568
06:00+11ююв379823 0.0 1006185
09:00+15ю578538 0.0 1006548
12:00+16ю568199 2.8 1006731
15:00+17юз6776100 5.8 1007937
18:00+16юз71283100 3.4 1007509
21:00+13ююз4119361 4.0 1009270
16 мая, вс
вс1600:00+11ююз38968 0.0 1010158
03:00+10ююз359798 0.0 101196
06:00+10ююз239791 0.8 101287
09:00+15ююз238526 0.9 1013399
12:00+18ююз347137 1.1 10131075
15:00+20юз346278 2.6 10131459
18:00+18ю237315 0.3 1012122
21:00+14ююв2285100 0.6 101319
17 мая, пн
пн1700:00+13юв3489100 0.0 101358
03:00+12юв3790100 0.0 1013118
06:00+13вюв3990100 0.0 1012194
09:00+17юв51077100 0.0 1011415
12:00+21вюв5768100 0.5 1010712
15:00+22вюв3770100 1.9 1007989
18:00+21ююз3677100 2.4 1006248
21:00+15зсз3598100 7.5 1006119